This is the latest recevied weather packets stored in our database for station/object W8CEN. If no packets are shown the sender has not sent any weather packets the latest 1 day(s).
| Time | Temp. | Humidity | Pressure | Rain* | Wind** | Luminosity | Snow |
|---|---|---|---|---|---|---|---|
| 1777964065 | 17.78° C | 65% | 980.8 hPa | 0 mm | 0.89 m/s, 247° | 0 W/m² | - |
| 1777963762 | 17.78° C | 65% | 980.9 hPa | 0 mm | 0.89 m/s, 236° | 0 W/m² | - |
| 1777963459 | 17.78° C | 66% | 980.9 hPa | 0 mm | 0.45 m/s, 252° | 0 W/m² | - |
| 1777963157 | 17.78° C | 66% | 981.1 hPa | 0 mm | 0.89 m/s, 256° | 0 W/m² | - |
| 1777962853 | 17.78° C | 65% | 981.1 hPa | 0 mm | 1.79 m/s, 272° | 0 W/m² | - |
| 1777962550 | 17.78° C | 66% | 981.3 hPa | 0 mm | 0.89 m/s, 248° | 0 W/m² | - |
| 1777962247 | 17.78° C | 66% | 981.1 hPa | 0 mm | 0.45 m/s, 273° | 0 W/m² | - |
| 1777961944 | 17.78° C | 66% | 981.1 hPa | 0 mm | 0.45 m/s, 264° | 0 W/m² | - |
| 1777961642 | 17.78° C | 65% | 981.4 hPa | 0 mm | 0.45 m/s, 235° | 0 W/m² | - |
| 1777961339 | 18.33° C | 65% | 981.5 hPa | 0 mm | 0.45 m/s, 296° | 0 W/m² | - |
| 1777961036 | 18.33° C | 64% | 981.5 hPa | 0 mm | 0.89 m/s, 326° | 0 W/m² | - |
| 1777960732 | 18.33° C | 64% | 981.4 hPa | 0 mm | 0.45 m/s, 277° | 0 W/m² | - |
| 1777960428 | 18.89° C | 64% | 981.4 hPa | 0 mm | 0.45 m/s, 279° | 0 W/m² | - |
| 1777960125 | 18.89° C | 63% | 981.6 hPa | 0 mm | 0.45 m/s, 245° | 0 W/m² | - |
| 1777959823 | 18.89° C | 62% | 981.4 hPa | 0 mm | 0.45 m/s, 248° | 0 W/m² | - |
| 1777959521 | 19.44° C | 61% | 981.8 hPa | 0 mm | 1.34 m/s, 244° | 0 W/m² | - |
| 1777959218 | 19.44° C | 60% | 981.6 hPa | 0 mm | 1.34 m/s, 271° | 0 W/m² | - |
| 1777958914 | 19.44° C | 59% | 980.9 hPa | 0 mm | 1.34 m/s, 252° | 0 W/m² | - |
| 1777958611 | 19.44° C | 60% | 980.7 hPa | 0 mm | 1.34 m/s, 252° | 0 W/m² | - |
| 1777958308 | 19.44° C | 60% | 980.5 hPa | 0 mm | 0.89 m/s, 172° | 0 W/m² | - |
| 1777958006 | 18.89° C | 60% | 980.5 hPa | 0 mm | 2.24 m/s, 240° | 0 W/m² | - |
| 1777957704 | 18.89° C | 62% | 980.4 hPa | 0 mm | 0.45 m/s, 261° | 0 W/m² | - |
| 1777957402 | 18.89° C | 62% | 980.6 hPa | 0 mm | 1.34 m/s, 269° | 0 W/m² | - |
| 1777957098 | 18.89° C | 63% | 980.6 hPa | 0 mm | 0.45 m/s, 264° | 0 W/m² | - |
| 1777956795 | 18.89° C | 62% | 980.7 hPa | 0 mm | 1.34 m/s, 256° | 0 W/m² | - |
* Rain latest hour (hover to see other rain measurements)
** Current wind speed in m/s (hover to see current wind gust speed)